Location: Castle Hill Houses
(40.8186°N, 73.8497°W)
Time: 14:43:56
(UTC+00:00)

ATLAS 3B R/B - Pass Details

Date: 26 January 2020
Orbit: 1027 x 1168 km, 63.8° (Epoch: 09 February)

Event Time Altitude Azimuth Distance (km) Brightness Sun altitude
Exits shadow 10:16:50 20° 329° (NNW) 2,238 4.0 -21.6°
Maximum altitude 10:21:50 81° 56° (NE) 1,095 2.7 -20.7°
Drops below altitude 10° 10:28:52 10° 144° (SE) 2,961 5.6 -19.4°
Sets 10:31:34 0° 145° (SE) 3,936 6.3 -18.9°
